TimeEDT,TemperatureF,Dew PointF,Humidity,Sea Level PressureIn,VisibilityMPH,Wind Direction,Wind SpeedMPH,Gust SpeedMPH,PrecipitationIn,Events,Conditions,WindDirDegrees,DateUTC
12:53 AM,70.0,69.1,97,29.90,3.0,NW,4.6,-,N/A,,Mostly Cloudy,320,2013-08-29 04:53:00
1:53 AM,72.0,70.0,93,29.91,5.0,North,4.6,-,N/A,,Overcast,360,2013-08-29 05:53:00
2:32 AM,71.6,69.8,94,29.90,5.0,NNE,6.9,-,N/A,,Overcast,20,2013-08-29 06:32:00
2:49 AM,71.6,69.8,94,29.90,4.0,NNE,5.8,-,N/A,,Overcast,30,2013-08-29 06:49:00
2:53 AM,72.0,70.0,93,29.92,4.0,NE,6.9,-,N/A,,Overcast,40,2013-08-29 06:53:00
3:53 AM,72.0,70.0,93,29.92,4.0,NNE,5.8,-,N/A,,Overcast,20,2013-08-29 07:53:00
4:11 AM,71.6,69.8,94,29.91,4.0,North,4.6,-,N/A,,Overcast,10,2013-08-29 08:11:00
4:53 AM,72.0,70.0,93,29.94,4.0,East,4.6,-,N/A,,Overcast,80,2013-08-29 08:53:00
5:44 AM,71.6,69.8,94,29.94,4.0,North,3.5,-,N/A,,Overcast,10,2013-08-29 09:44:00
5:53 AM,72.0,70.0,93,29.96,4.0,North,4.6,-,N/A,,Overcast,10,2013-08-29 09:53:00
6:53 AM,70.0,68.0,93,29.98,2.5,North,5.8,-,N/A,,Partly Cloudy,360,2013-08-29 10:53:00
7:25 AM,69.8,68.0,94,29.98,2.0,ENE,5.8,-,N/A,,Mostly Cloudy,60,2013-08-29 11:25:00
7:53 AM,70.0,68.0,93,30.01,2.0,NE,4.6,-,N/A,,Overcast,50,2013-08-29 11:53:00
8:16 AM,71.6,68.0,88,30.00,2.0,ENE,8.1,-,N/A,,Overcast,70,2013-08-29 12:16:00
8:42 AM,73.4,68.0,83,30.00,2.0,ENE,6.9,-,N/A,,Haze,60,2013-08-29 12:42:00
8:53 AM,73.0,68.0,84,30.02,2.0,ENE,6.9,-,N/A,,Haze,70,2013-08-29 12:53:00
9:00 AM,73.4,68.0,83,30.00,5.0,NE,8.1,-,N/A,,Haze,40,2013-08-29 13:00:00
9:21 AM,73.4,66.2,78,30.00,7.0,NE,4.6,-,N/A,,Mostly Cloudy,50,2013-08-29 13:21:00
9:29 AM,75.2,66.2,73,30.00,8.0,Variable,5.8,-,N/A,,Partly Cloudy,0,2013-08-29 13:29:00
9:44 AM,75.2,68.0,78,30.02,7.0,NNE,3.5,-,N/A,,Mostly Cloudy,20,2013-08-29 13:44:00
9:53 AM,75.0,66.9,76,30.03,8.0,NE,6.9,-,N/A,,Mostly Cloudy,50,2013-08-29 13:53:00
10:53 AM,75.9,68.0,76,30.04,7.0,NNE,5.8,-,N/A,,Overcast,30,2013-08-29 14:53:00
11:29 AM,78.8,68.0,69,30.03,8.0,Variable,4.6,-,N/A,,Partly Cloudy,0,2013-08-29 15:29:00
11:45 AM,78.8,66.2,65,30.03,8.0,East,4.6,-,N/A,,Mostly Cloudy,100,2013-08-29 15:45:00
11:53 AM,79.0,66.9,66,30.05,8.0,ENE,6.9,-,N/A,,Mostly Cloudy,60,2013-08-29 15:53:00
12:01 PM,78.8,66.2,65,30.04,8.0,East,5.8,-,N/A,,Mostly Cloudy,80,2013-08-29 16:01:00
12:09 PM,80.6,66.2,61,30.04,8.0,NE,5.8,-,N/A,,Mostly Cloudy,50,2013-08-29 16:09:00
12:39 PM,80.6,66.2,61,30.03,8.0,Variable,6.9,-,N/A,,Overcast,0,2013-08-29 16:39:00
12:53 PM,79.0,68.0,69,30.04,8.0,North,4.6,-,N/A,,Mostly Cloudy,360,2013-08-29 16:53:00
1:53 PM,82.0,64.9,56,30.04,10.0,NE,6.9,-,N/A,,Partly Cloudy,40,2013-08-29 17:53:00
2:53 PM,82.9,64.9,54,30.03,10.0,ENE,5.8,-,N/A,,Mostly Cloudy,70,2013-08-29 18:53:00
3:53 PM,84.9,64.9,51,30.01,10.0,NNE,8.1,-,N/A,,Scattered Clouds,30,2013-08-29 19:53:00
4:53 PM,84.9,64.9,51,30.01,10.0,Calm,Calm,-,N/A,,Partly Cloudy,0,2013-08-29 20:53:00
5:53 PM,82.9,64.9,54,30.02,10.0,SE,6.9,-,N/A,,Clear,130,2013-08-29 21:53:00
6:53 PM,82.0,66.0,58,30.02,10.0,ESE,3.5,-,N/A,,Clear,120,2013-08-29 22:53:00
7:53 PM,80.1,66.0,62,30.03,10.0,ESE,4.6,-,N/A,,Clear,120,2013-08-29 23:53:00
8:53 PM,77.0,66.9,71,30.04,10.0,East,3.5,-,N/A,,Clear,100,2013-08-30 00:53:00
9:53 PM,75.0,66.9,76,30.05,9.0,ESE,4.6,-,N/A,,Clear,110,2013-08-30 01:53:00
10:53 PM,73.0,66.9,81,30.04,8.0,Calm,Calm,-,N/A,,Clear,0,2013-08-30 02:53:00
11:53 PM,73.0,66.0,79,30.04,8.0,Calm,Calm,-,N/A,,Clear,0,2013-08-30 03:53:00